Weather History for Garden City, KS

Change the Weather History Date:

Wednesday, February 26, 2014

  Actual Average Record
Temperature  
Mean Temperature 26 °F 38 °F  
Max Temperature 44 °F 52 °F 78 °F (1981)
Min Temperature 7 °F 25 °F 0 °F (2003)
Degree Days  
Heating Degree Days 39 27  
Month to date heating degree days 961 793  
Since 1 July heating degree days 4126 3973  
Cooling Degree Days 0 0  
Month to date cooling degree days 0 0  
Year to date cooling degree days 0 0  
Moisture  
Dew Point 9 °F    
Average Humidity 56    
Maximum Humidity 84    
Minimum Humidity 27    
Precipitation  
Precipitation T in 0.02 in 0.49 in (1987)
Month to date precipitation 0.13 0.50  
Year to date precipitation 0.16 0.84  
Sea Level Pressure  
Sea Level Pressure 30.29 in    
Wind  
Wind Speed 8 mph (WNW)    
Max Wind Speed 16 mph    
Max Gust Speed 23 mph    
Visibility 10 miles    
Events Snow    
T = Trace of Precipitation, MM = Missing Value Source: NWS Daily Summary

Daily Weather History Graph

Daily Weather History Graph

Search for Another Location

Airport:

Trip Planner

Search our weather history database for the weather conditions in past years. The results will help you decide how hot, cold, wet, or windy it might be!

Date:

Astronomy

Feb. 26, 2014 Rise Set
Actual Time 7:18 AM CST 6:33 PM CST
Civil Twilight 6:52 AM CST 6:59 PM CST
Nautical Twilight 6:21 AM CST 7:30 PM CST
Astronomical Twilight 5:51 AM CST 8:00 PM CST
Moon 5:04 AM CST (2/26) 3:52 PM CST (2/26)
Length of Visible Light 12h 07m
Length of Day
11h 14m
Waning Crescent, 10% of the Moon is Illuminated
Feb 26
Waning Crescent
Mar 1
New
Mar 8
First Quarter
Mar 16
Full
Mar 23
Last Quarter

Hourly Weather History & Observations

Time (CST) Temp. Windchill Dew Point Humidity Pressure Visibility Wind Dir Wind Speed Gust Speed Precip Events Conditions
12:54 AM 15.1 °F 1.8 °F 7.0 °F 70% 30.53 in 10.0 mi North 11.5 mph - N/A   Scattered Clouds
1:08 AM 15.1 °F 1.8 °F 7.0 °F 70% 30.41 in 10.0 mi North 11.5 mph - N/A   Mostly Cloudy
1:31 AM 14.0 °F 0.5 °F 8.1 °F 77% 30.41 in 10.0 mi North 11.5 mph - N/A   Overcast
1:54 AM 12.9 °F 2.6 °F 8.1 °F 81% 30.52 in 9.0 mi North 6.9 mph - N/A   Overcast
2:54 AM 12.9 °F 2.6 °F 9.0 °F 84% 30.50 in 9.0 mi NW 6.9 mph - 0.00 in   Overcast
3:14 AM 12.0 °F 2.7 °F 9.0 °F 88% 30.37 in 8.0 mi NW 5.8 mph - N/A   Overcast
3:25 AM 12.0 °F 2.7 °F 8.1 °F 84% 30.36 in 10.0 mi NW 5.8 mph - N/A   Mostly Cloudy
3:32 AM 12.0 °F 2.7 °F 8.1 °F 84% 30.35 in 10.0 mi NW 5.8 mph - N/A   Mostly Cloudy
3:42 AM 10.0 °F 0.4 °F 7.0 °F 87% 30.35 in 10.0 mi NW 5.8 mph - N/A   Mostly Cloudy
3:54 AM 10.0 °F 0.4 °F 7.0 °F 87% 30.46 in 10.0 mi NW 5.8 mph - N/A   Mostly Cloudy
4:54 AM 12.0 °F 4.1 °F 8.1 °F 84% 30.42 in 5.0 mi NW 4.6 mph - 0.00 in Snow Light Snow
5:02 AM 12.0 °F 2.7 °F 8.1 °F 84% 30.29 in 6.0 mi NW 5.8 mph - 0.00 in   Overcast
5:10 AM 10.0 °F 0.4 °F 7.0 °F 87% 30.29 in 9.0 mi WNW 5.8 mph - 0.00 in   Overcast
5:34 AM 9.0 °F - 6.1 °F 88% 30.27 in 10.0 mi Calm Calm - 0.00 in   Scattered Clouds
5:54 AM 9.0 °F 0.6 °F 5.0 °F 84% 30.40 in 10.0 mi West 4.6 mph - 0.00 in   Clear
6:54 AM 8.1 °F 1.4 °F 3.9 °F 83% 30.40 in 10.0 mi SW 3.5 mph - N/A   Clear
7:54 AM 9.0 °F 2.4 °F 5.0 °F 84% 30.40 in 10.0 mi SW 3.5 mph - N/A   Clear
8:54 AM 15.1 °F 3.3 °F 9.0 °F 77% 30.37 in 10.0 mi SSW 9.2 mph - N/A   Clear
9:54 AM 19.9 °F 8.6 °F 8.1 °F 60% 30.35 in 10.0 mi SW 10.4 mph - N/A   Clear
10:54 AM 23.0 °F 10.6 °F 8.1 °F 53% 30.32 in 10.0 mi SSW 13.8 mph - N/A   Clear
11:54 AM 27.0 °F 16.1 °F 8.1 °F 45% 30.28 in 10.0 mi SSW 12.7 mph 16.1 mph N/A   Clear
12:54 PM 32.0 °F 24.2 °F 9.0 °F 38% 30.23 in 10.0 mi SW 9.2 mph - N/A   Clear
1:54 PM 35.1 °F 25.9 °F 9.0 °F 34% 30.17 in 10.0 mi SSW 13.8 mph - N/A   Clear
2:54 PM 37.9 °F 30.0 °F 10.0 °F 32% 30.14 in 10.0 mi West 12.7 mph 18.4 mph N/A   Clear
3:54 PM 41.0 °F 34.3 °F 10.9 °F 29% 30.09 in 10.0 mi WSW 11.5 mph - N/A   Clear
4:54 PM 43.0 °F 36.0 °F 10.9 °F 27% 30.07 in 10.0 mi WSW 13.8 mph - N/A   Clear
5:54 PM 42.1 °F 37.1 °F 12.0 °F 29% 30.07 in 10.0 mi WSW 8.1 mph - N/A   Clear
6:54 PM 37.9 °F 33.5 °F 12.0 °F 35% 30.09 in 10.0 mi SW 5.8 mph - N/A   Clear
7:54 PM 35.1 °F 30.1 °F 12.0 °F 39% 30.11 in 10.0 mi West 5.8 mph - N/A   Clear
8:54 PM 32.0 °F 24.2 °F 10.0 °F 40% 30.11 in 10.0 mi NE 9.2 mph - N/A   Clear
9:54 PM 28.9 °F 22.8 °F 9.0 °F 43% 30.12 in 10.0 mi NE 5.8 mph - N/A   Clear
10:54 PM 21.9 °F - 10.0 °F 60% 30.13 in 10.0 mi Calm Calm - N/A   Clear
11:54 PM 23.0 °F 15.8 °F 10.9 °F 60% 30.12 in 10.0 mi WNW 5.8 mph - N/A   Clear